#timestamp,LO_Frequency,Hit,StdDev 
1563019215.2,286046999.9,N
1563019235.1,286047001.0,N
1563019236.0,286047001.0,N
1563019255.8,286047001.2,N
1563019275.6,286046998.3,N
1563019295.5,286046999.1,N
1563019315.3,286046995.0,N
1563019335.1,286046993.7,Y
1563019355.9,286046995.4,P
1563019375.7,286046999.6,N
1563019395.6,286046998.7,N
1563019415.4,286046999.2,N
1563019435.2,286046998.5,N
1563019455.1,286047000.3,N
1563019456.0,286047000.3,N
1563019475.8,286046998.9,N
1563019495.6,286046996.8,N
1563019515.5,286046995.1,Y
1563019535.3,286046996.9,P
1563019555.2,286046999.0,N
1563019575.9,286046998.1,N
1563019595.7,286046998.2,N
1563019615.6,286046998.3,N
1563019635.4,286046999.5,N
1563019655.3,286046998.1,N
1563019675.1,286046999.0,N
1563019676.0,286046999.0,N
1563019695.8,286046999.4,N
1563019715.7,286047001.2,N
1563019735.5,286046999.1,N
1563019755.3,286046995.6,Y
1563019775.2,286046996.5,P
1563019795.0,286046997.1,N
1563019795.9,286046997.1,N
1563019815.8,286046994.9,Y
1563019835.6,286046998.7,P
1563019855.4,286046997.0,P
1563019875.3,286046997.3,P
1563019895.1,286047001.2,N
1563019915.8,286047001.1,N
1563019935.7,286046998.6,N
1563019955.5,286047000.9,N
1563019975.4,286047000.4,N
1563019995.2,286047000.8,N
1563020015.0,286047000.5,N
1563020015.9,286047000.5,N
1563020035.8,286047000.7,N
1563020055.6,286047000.2,N
1563020075.4,286046999.7,N
1563020095.3,286046999.8,N
1563020115.1,286046998.2,N
1563020135.9,286046997.3,N
1563020155.7,286046999.1,N
1563020175.5,286047001.2,N
1563020195.4,286046998.5,N
1563020215.2,286046998.9,N
1563020235.0,286046999.0,N
1563020236.0,286046999.0,N
1563020255.8,286046997.1,N
1563020275.6,286046997.8,N
1563020295.5,286046998.7,N
1563020315.3,286046998.5,N
1563020335.1,286046999.2,N
1563020355.9,286046998.8,N
1563020375.7,286046998.8,N
1563020395.6,286046998.8,N
1563020415.4,286046998.4,N
1563020435.2,286047000.6,N
1563020455.1,286047002.4,N
1563020456.0,286047002.4,N
1563020475.8,286047001.1,N
1563020495.7,286046998.5,N
1563020515.5,286047000.7,N
1563020535.3,286046999.0,N
1563020555.2,286046999.2,N
1563020575.0,286046998.4,N
1563020575.9,286046998.4,N
1563020595.7,286046999.5,N
1563020615.6,286046997.3,N
1563020635.4,286046995.6,Y
1563020655.3,286046999.6,P
1563020705.1,286047000.7,E
1563020715.1,286047000.5,N
1563020716.0,286047000.5,P
1563020735.8,286047003.2,P
1563020755.6,286047005.3,Y
1563020775.5,286047006.0,P
1563020795.3,286047002.9,N
1563020815.1,286047004.1,N
1563020835.9,286047003.6,N
1563020855.7,286047005.4,Y
1563020875.6,286047011.9,P
1563020895.4,286047001.9,N
1563020915.2,286047003.5,N
1563020935.1,286047004.0,N
1563020936.0,286047004.0,N
1563020955.8,286047001.8,N
1563020975.7,286046998.9,N
1563020995.5,286046999.2,N
1563021015.3,286046998.9,N
1563021035.2,286046996.6,N
1563021055.9,286046997.0,N
1563021075.7,286046999.0,N
1563021095.6,286047000.7,N
1563021115.4,286047001.5,N
1563021135.2,286047004.3,N
1563021155.1,286047004.2,N
1563021156.0,286047004.2,N
1563021175.8,286047004.3,N
1563021195.7,286047004.1,N
1563021215.5,286047003.1,N
1563021235.3,286047003.8,N
1563021255.2,286047004.3,N
1563021275.0,286047001.5,N
1563021275.9,286047001.5,N
1563021295.8,286047002.6,N
1563021315.6,286047002.5,N
1563021335.4,286047003.6,N
1563021355.3,286047003.0,N
1563021375.1,286047004.7,N
1563021376.0,286047004.7,N
1563021395.8,286047007.1,N
1563021415.7,286047004.7,N
1563021435.5,286047003.7,N
1563021455.4,286047003.6,N
1563021475.2,286047005.6,N
1563021495.0,286047005.7,N
1563021495.9,286047005.7,N
1563021515.8,286047004.7,N
1563021535.6,286047004.7,N
1563021555.4,286047005.7,N
1563021575.3,286047007.6,Y
1563021595.1,286047002.3,P
1563021615.9,286047000.9,N
1563021635.7,286047000.9,N
1563021655.5,286047001.2,N
1563021675.4,286046999.7,N
1563021695.2,286047002.0,N
1563021715.0,286047002.8,N
1563021715.9,286047002.8,N
1563021735.8,286046998.1,N
1563021755.6,286046996.9,N
1563021775.5,286046997.8,N
1563021795.3,286046994.1,N
1563021815.1,286046994.1,N
1563021835.9,286046994.0,N
1563021855.7,286046994.0,N
1563021875.5,286046994.5,N
1563021895.4,286046994.3,N
1563021915.2,286046994.6,N
1563021935.1,286046992.2,N
1563021936.0,286046992.2,N
1563021955.8,286046994.7,N
1563021975.6,286046994.0,N
1563021995.5,286046996.0,N
1563022015.3,286046993.7,N
1563022035.1,286046995.7,N
1563022055.9,286046997.6,N
1563022075.7,286046997.1,N
1563022095.6,286046997.8,N
1563022115.4,286046993.8,N
1563022135.2,286046992.2,N
1563022155.1,286046995.9,N
1563022156.0,286046995.9,N
1563022175.8,286046996.3,N
1563022195.6,286046993.3,N
1563022215.5,286046993.8,N
1563022235.3,286046995.1,N
1563022255.2,286046993.6,N
1563022275.9,286046994.5,N
1563022295.7,286046993.9,Y
1563022315.6,286046997.0,P
1563022335.4,286046996.5,P
1563022355.2,286046997.3,P
1563022375.1,286046997.4,N
1563022376.0,286046997.4,N
1563022395.8,286046997.6,N
1563022415.7,286046996.7,Y
1563022435.5,286046999.0,P
1563022455.3,286046998.7,N
1563022475.2,286046998.8,N
1563022495.0,286046999.6,N
1563022495.9,286046999.6,N
1563022515.8,286046998.2,N
1563022535.6,286046999.3,N
1563022555.4,286046998.9,N
1563022575.3,286047000.9,N
1563022595.1,286047000.9,N
1563022615.8,286046998.7,N
1563022635.7,286046999.1,N
1563022655.5,286046999.0,N
1563022675.4,286046998.4,N
1563022695.2,286046996.5,Y
1563022715.0,286046999.2,P
1563022715.9,286046999.2,P
1563022735.8,286047000.8,P
1563022755.6,286047000.2,N
1563022775.4,286047002.0,N
1563022795.3,286046999.9,N
